TimeICT,TemperatureF,Dew PointF,Humidity,Sea Level PressureIn,VisibilityMPH,Wind Direction,Wind SpeedMPH,Gust SpeedMPH,PrecipitationIn,Events,Conditions,WindDirDegrees,DateUTC
1:00 AM,77,75,92,29.83,4,Calm,Calm,,,,Mist,,2012-11-14 18:00:00
6:00 AM,73.4,73.4,100,29.80,1.2,Calm,Calm,-,N/A,,Mostly Cloudy,0,2012-11-14 23:00:00
7:00 AM,73,72,95,29.82,4,Calm,Calm,,,,Mist,,2012-11-15 00:00:00
7:00 AM,73.4,73.4,100,29.80,3.7,Calm,Calm,-,N/A,,Mostly Cloudy,0,2012-11-15 00:00:00
8:00 AM,77.0,77.0,100,29.83,6.2,Calm,Calm,-,N/A,,Scattered Clouds,0,2012-11-15 01:00:00
9:00 AM,84.2,77.0,79,29.86,6.2,Calm,Calm,-,N/A,,Scattered Clouds,0,2012-11-15 02:00:00
10:00 AM,87.8,77.0,70,29.86,6.2,Calm,Calm,-,N/A,,Scattered Clouds,0,2012-11-15 03:00:00
11:00 AM,89.6,77.0,66,29.86,6.2,NW,3.5,-,N/A,,Scattered Clouds,320,2012-11-15 04:00:00
12:00 PM,89.6,73.4,59,29.86,6.2,East,4.6,-,N/A,,Scattered Clouds,90,2012-11-15 05:00:00
1:00 PM,93,74,44,29.80,6,North,4.6,,,,Mist,0,2012-11-15 06:00:00
1:00 PM,93.2,75.2,56,29.80,6.2,East,4.6,-,N/A,,Scattered Clouds,90,2012-11-15 06:00:00
2:00 PM,91.4,73.4,55,29.77,6.2,NE,6.9,-,N/A,,Scattered Clouds,50,2012-11-15 07:00:00
3:00 PM,93.2,73.4,52,29.77,6.2,NE,5.8,-,N/A,,Scattered Clouds,50,2012-11-15 08:00:00
4:00 PM,93.2,71.6,49,29.74,6.2,NE,8.1,-,N/A,,Scattered Clouds,50,2012-11-15 09:00:00
5:00 PM,89.6,75.2,62,29.77,6.2,NE,8.1,-,N/A,,Scattered Clouds,50,2012-11-15 10:00:00
6:00 PM,86.0,77.0,74,29.77,6.2,NE,5.8,-,N/A,,Scattered Clouds,40,2012-11-15 11:00:00
7:00 PM,84,76,71,29.78,6,Calm,Calm,,,,Scattered Clouds,,2012-11-15 12:00:00
7:00 PM,80.6,77.0,89,29.77,5.0,NE,4.6,-,N/A,,Scattered Clouds,50,2012-11-15 12:00:00
8:00 PM,80.6,77.0,89,29.83,4.3,NE,3.5,-,N/A,,Scattered Clouds,40,2012-11-15 13:00:00
9:00 PM,78.8,77.0,94,29.83,4.3,North,3.5,-,N/A,,Scattered Clouds,350,2012-11-15 14:00:00
10:00 PM,78.8,77.0,94,29.89,4.3,Calm,Calm,-,N/A,,Partly Cloudy,0,2012-11-15 15:00:00
11:00 PM,78.8,77.0,94,29.89,3.1,West,3.5,-,N/A,,Partly Cloudy,280,2012-11-15 16:00:00